• In Portugal
  • List of Countries
  • For 7 days
  • Water Temperature
  • Satellite Maps
  • Weather Map
  • Weather Widgets
  • user-avatar
    Login

    Hourly Weather Jutiapa

    Today, 23 August, Wednesday

    Time Temperature Precipitation Wind Pressure Humidity
    00:00 +20°C° 0.6 mm 1 mps 672 mmHg 96%
    01:00 +20°C° 0.4 mm 1 mps 672 mmHg 95%
    02:00 +20°C° 0.4 mm 1 mps 672 mmHg 95%
    03:00 +20°C° 0.4 mm 1 mps 671 mmHg 95%
    04:00 +20°C° 0.1 mm 1 mps 671 mmHg 95%
    05:00 +19°C° 0.1 mm 1 mps 671 mmHg 94%
    06:00 +19°C° 0.1 mm 1 mps 671 mmHg 94%
    07:00 +22°C° 0 mm 1 mps 672 mmHg 85%
    08:00 +25°C° 0 mm 1 mps 673 mmHg 76%
    09:00 +25°C° 0 mm 0 mps 674 mmHg 68%
    10:00 +28°C° 0.4 mm 1 mps 674 mmHg 65%
    11:00 +30°C° 0.4 mm 1 mps 674 mmHg 62%
    12:00 +31°C° 0.4 mm 1 mps 674 mmHg 60%
    13:00 +30°C° 1.1 mm 2 mps 673 mmHg 62%
    14:00 +29°C° 1.1 mm 2 mps 672 mmHg 65%
    15:00 +29°C° 1.1 mm 2 mps 671 mmHg 67%
    16:00 +27°C° 1.3 mm 2 mps 671 mmHg 73%
    17:00 +25°C° 1.3 mm 1 mps 671 mmHg 79%
    18:00 +24°C° 1.3 mm 1 mps 670 mmHg 85%
    19:00 +23°C° 2 mm 1 mps 671 mmHg 87%
    20:00 +22°C° 2 mm 1 mps 671 mmHg 89%
    21:00 +22°C° 2 mm 1 mps 671 mmHg 92%
    22:00 +22°C° 1.4 mm 1 mps 671 mmHg 92%
    23:00 +21°C° 1.4 mm 1 mps 671 mmHg 92%

    Tomorrow, 24 August, Thursday

    Time Temperature Precipitation Wind Pressure Humidity
    00:00 +21°C° 1.4 mm 1 mps 671 mmHg 92%
    01:00 +21°C° 1 mm 1 mps 671 mmHg 92%
    02:00 +20°C° 1 mm 1 mps 670 mmHg 93%
    03:00 +20°C° 1 mm 1 mps 670 mmHg 93%
    04:00 +20°C° 0.1 mm 1 mps 670 mmHg 93%
    05:00 +20°C° 0.1 mm 1 mps 670 mmHg 92%
    06:00 +20°C° 0.1 mm 1 mps 670 mmHg 92%
    07:00 +22°C° 0 mm 1 mps 671 mmHg 84%
    08:00 +23°C° 0 mm 0 mps 672 mmHg 75%
    09:00 +25°C° 0 mm 0 mps 673 mmHg 67%
    10:00 +28°C° 0.4 mm 1 mps 673 mmHg 64%
    11:00 +29°C° 0.4 mm 1 mps 672 mmHg 61%
    12:00 +31°C° 0.4 mm 1 mps 672 mmHg 58%
    13:00 +30°C° 1 mm 2 mps 672 mmHg 60%
    14:00 +30°C° 1 mm 2 mps 671 mmHg 62%
    15:00 +29°C° 1 mm 2 mps 670 mmHg 65%
    16:00 +27°C° 1.5 mm 2 mps 670 mmHg 72%
    17:00 +25°C° 1.5 mm 2 mps 670 mmHg 80%
    18:00 +24°C° 1.5 mm 1 mps 669 mmHg 88%
    19:00 +23°C° 2.3 mm 1 mps 670 mmHg 90%
    20:00 +22°C° 2.3 mm 1 mps 671 mmHg 93%
    21:00 +20°C° 2.3 mm 0 mps 671 mmHg 96%
    22:00 +20°C° 1.9 mm 0 mps 671 mmHg 96%
    23:00 +19°C° 1.9 mm 0 mps 671 mmHg 96%

    Day after tomorrow, 25 August, Friday

    Time Temperature Precipitation Wind Pressure Humidity
    00:00 +19°C° 1.9 mm 0 mps 671 mmHg 96%
    01:00 +19°C° 1.2 mm 0 mps 671 mmHg 95%
    02:00 +19°C° 1.2 mm 0 mps 670 mmHg 95%
    03:00 +19°C° 1.2 mm 0 mps 670 mmHg 95%
    04:00 +19°C° 1.1 mm 0 mps 670 mmHg 95%
    05:00 +19°C° 1.1 mm 0 mps 671 mmHg 96%
    06:00 +18°C° 1.1 mm 0 mps 671 mmHg 96%
    07:00 +20°C° 0.4 mm 0 mps 671 mmHg 93%
    08:00 +21°C° 0.4 mm 0 mps 672 mmHg 89%
    09:00 +22°C° 0.4 mm 0 mps 673 mmHg 85%
    10:00 +25°C° 0.8 mm 1 mps 673 mmHg 82%
    11:00 +26°C° 0.8 mm 1 mps 673 mmHg 79%
    12:00 +27°C° 0.8 mm 2 mps 673 mmHg 76%
    13:00 +26°C° 1.7 mm 2 mps 672 mmHg 79%
    14:00 +26°C° 1.7 mm 2 mps 671 mmHg 82%
    15:00 +25°C° 1.7 mm 2 mps 671 mmHg 86%
    16:00 +24°C° 1.6 mm 1 mps 671 mmHg 88%
    17:00 +23°C° 1.6 mm 1 mps 671 mmHg 91%
    18:00 +22°C° 1.6 mm 1 mps 671 mmHg 93%
    19:00 +22°C° 0.9 mm 1 mps 671 mmHg 93%
    20:00 +21°C° 0.9 mm 1 mps 672 mmHg 94%
    21:00 +21°C° 0.9 mm 1 mps 672 mmHg 94%
    22:00 +21°C° 0.3 mm 1 mps 672 mmHg 94%
    23:00 +21°C° 0.3 mm 1 mps 672 mmHg 94%

    26 August, Saturday

    Time Temperature Precipitation Wind Pressure Humidity
    00:00 +20°C° 0.3 mm 1 mps 672 mmHg 95%
    01:00 +20°C° 0.3 mm 1 mps 672 mmHg 95%
    02:00 +20°C° 0.3 mm 1 mps 671 mmHg 95%
    03:00 +20°C° 0.3 mm 1 mps 671 mmHg 95%
    04:00 +20°C° 0.1 mm 1 mps 671 mmHg 94%
    05:00 +19°C° 0.1 mm 1 mps 671 mmHg 94%
    06:00 +19°C° 0.1 mm 1 mps 671 mmHg 94%
    07:00 +21°C° 0 mm 1 mps 672 mmHg 89%
    08:00 +22°C° 0 mm 1 mps 673 mmHg 85%
    09:00 +24°C° 0 mm 1 mps 673 mmHg 80%
    10:00 +25°C° 0.3 mm 1 mps 673 mmHg 77%
    11:00 +25°C° 0.3 mm 2 mps 673 mmHg 74%
    12:00 +26°C° 0.3 mm 2 mps 673 mmHg 71%
    13:00 +26°C° 0.6 mm 2 mps 672 mmHg 73%
    14:00 +26°C° 0.6 mm 2 mps 672 mmHg 74%
    15:00 +26°C° 0.6 mm 2 mps 671 mmHg 76%
    16:00 +25°C° 1.2 mm 2 mps 671 mmHg 81%
    17:00 +24°C° 1.2 mm 2 mps 671 mmHg 87%
    18:00 +22°C° 1.2 mm 1 mps 671 mmHg 92%
    19:00 +22°C° 0.4 mm 1 mps 672 mmHg 93%
    20:00 +21°C° 0.4 mm 1 mps 672 mmHg 94%
    21:00 +20°C° 0.4 mm 1 mps 672 mmHg 95%
    22:00 +20°C° 0.1 mm 1 mps 672 mmHg 95%
    23:00 +20°C° 0.1 mm 1 mps 672 mmHg 95%

    27 August, Sunday

    Time Temperature Precipitation Wind Pressure Humidity
    00:00 +20°C° 0.1 mm 1 mps 672 mmHg 95%
    01:00 +19°C° 0 mm 1 mps 671 mmHg 95%
    02:00 +19°C° 0 mm 1 mps 671 mmHg 95%
    03:00 +19°C° 0 mm 1 mps 671 mmHg 94%
    04:00 +19°C° 0 mm 1 mps 671 mmHg 94%
    05:00 +19°C° 0 mm 1 mps 671 mmHg 93%
    06:00 +19°C° 0 mm 1 mps 671 mmHg 93%
    07:00 +21°C° 0 mm 1 mps 672 mmHg 84%
    08:00 +23°C° 0 mm 1 mps 673 mmHg 76%
    09:00 +26°C° 0 mm 1 mps 674 mmHg 68%
    10:00 +27°C° 0.1 mm 1 mps 673 mmHg 65%
    11:00 +28°C° 0.1 mm 2 mps 673 mmHg 63%
    12:00 +29°C° 0.1 mm 2 mps 673 mmHg 60%
    13:00 +28°C° 0.8 mm 2 mps 672 mmHg 62%
    14:00 +28°C° 0.8 mm 2 mps 672 mmHg 65%
    15:00 +28°C° 0.8 mm 2 mps 671 mmHg 67%
    16:00 +27°C° 0.5 mm 2 mps 671 mmHg 72%
    17:00 +25°C° 0.5 mm 2 mps 671 mmHg 78%
    18:00 +24°C° 0.5 mm 1 mps 671 mmHg 84%
    19:00 +23°C° 0.2 mm 1 mps 671 mmHg 87%
    20:00 +22°C° 0.2 mm 1 mps 671 mmHg 91%
    21:00 +21°C° 0.2 mm 1 mps 671 mmHg 95%
    22:00 +20°C° 0 mm 1 mps 671 mmHg 95%
    23:00 +20°C° 0 mm 1 mps 671 mmHg 95%

    28 August, Monday

    Time Temperature Precipitation Wind Pressure Humidity
    00:00 +20°C° 0 mm 1 mps 671 mmHg 95%
    01:00 +20°C° 0 mm 1 mps 671 mmHg 95%
    02:00 +19°C° 0 mm 1 mps 671 mmHg 94%
    03:00 +19°C° 0 mm 1 mps 670 mmHg 94%
    04:00 +19°C° 0 mm 1 mps 670 mmHg 93%
    05:00 +19°C° 0 mm 1 mps 671 mmHg 92%
    06:00 +19°C° 0 mm 1 mps 671 mmHg 92%
    07:00 +21°C° 0 mm 1 mps 672 mmHg 82%
    08:00 +24°C° 0 mm 1 mps 672 mmHg 73%
    09:00 +27°C° 0 mm 1 mps 673 mmHg 63%
    10:00 +28°C° 0 mm 1 mps 673 mmHg 57%
    11:00 +29°C° 0 mm 2 mps 673 mmHg 51%
    12:00 +30°C° 0 mm 2 mps 672 mmHg 46%
    13:00 +30°C° 0.1 mm 2 mps 672 mmHg 48%
    14:00 +30°C° 0.1 mm 2 mps 671 mmHg 50%
    15:00 +30°C° 0.1 mm 3 mps 671 mmHg 53%
    16:00 +28°C° 0.4 mm 2 mps 671 mmHg 62%
    17:00 +26°C° 0.4 mm 2 mps 671 mmHg 72%
    18:00 +24°C° 0.4 mm 2 mps 671 mmHg 81%
    19:00 +23°C° 0.6 mm 1 mps 671 mmHg 86%
    20:00 +22°C° 0.6 mm 1 mps 671 mmHg 90%
    21:00 +21°C° 0.6 mm 1 mps 672 mmHg 95%
    22:00 +20°C° 0.2 mm 1 mps 671 mmHg 95%
    23:00 +20°C° 0.2 mm 1 mps 671 mmHg 95%
    Show more